#timestamp,LO_Frequency,Hit,StdDev 
1667750415.8,286046999.1,N
1667750435.6,286046996.9,N
1667750455.5,286046998.9,N
1667750475.3,286046998.9,N
1667750495.1,286047000.0,N
1667750515.9,286047000.0,N
1667750535.7,286047002.8,N
1667750555.5,286047000.6,N
1667750575.4,286047000.6,N
1667750595.2,286047000.4,N
1667750615.1,286047000.3,N
1667750616.0,286047000.3,N
1667750635.8,286047000.5,N
1667750655.6,286047002.6,N
1667750675.5,286046999.7,N
1667750695.3,286047001.0,N
1667750715.1,286046996.6,N
1667750735.9,286046998.7,N
1667750755.7,286046998.4,N
1667750775.6,286046999.5,N
1667750795.4,286046996.7,N
1667750815.2,286046998.6,N
1667750835.1,286047000.7,N
1667750836.0,286047000.7,N
1667750855.8,286047000.6,N
1667750875.6,286047000.1,N
1667750895.5,286047001.6,N
1667750915.3,286047000.2,N
1667750935.2,286046999.7,N
1667750955.9,286047000.0,N
1667750975.7,286047000.0,N
1667750995.6,286047002.8,N
1667751015.4,286046999.8,N
1667751035.2,286047001.9,N
1667751055.1,286047000.4,N
1667751056.0,286047000.4,N
1667751075.8,286046998.2,N
1667751095.7,286046999.0,N
1667751115.5,286046997.8,N
1667751135.4,286046995.8,N
1667751155.2,286046998.0,N
1667751175.0,286046995.9,N
1667751175.9,286046995.9,N
1667751195.8,286046995.7,N
1667751215.6,286046997.9,N
1667751235.5,286046999.5,N
1667751255.3,286046998.3,N
1667751275.1,286047001.0,N
1667751295.9,286047002.8,N
1667751315.7,286046999.7,N
1667751335.5,286047000.4,N
1667751355.4,286047002.6,N
1667751375.2,286047001.4,N
1667751395.1,286047003.6,N
1667751396.0,286047003.6,N
1667751415.8,286047006.0,N
1667751435.6,286047003.3,N
1667751455.5,286047003.6,N
1667751475.3,286047001.9,N
1667751495.2,286046999.9,N
1667751515.9,286047001.1,N
1667751535.7,286046998.4,N
1667751555.6,286046998.3,N
1667751575.4,286047001.1,N
1667751595.2,286047001.1,N
1667751615.1,286047000.6,N
1667751616.0,286047000.6,N
1667751635.8,286046998.6,N
1667751655.7,286047000.7,N
1667751675.5,286047000.5,N
1667751695.3,286047001.1,N
1667751715.2,286047000.4,N
1667751735.0,286047000.0,N
1667751735.9,286047000.0,N
1667751755.8,286047000.3,N
1667751775.6,286047000.9,N
1667751795.4,286047000.9,N
1667751815.3,286047000.6,N
1667751835.1,286047000.7,N
1667751855.8,286046998.2,N
1667751875.7,286047000.1,N
1667751895.5,286047002.7,N
1667751915.4,286047002.4,N
1667751935.2,286047000.7,N
1667751955.0,286047001.2,N
1667751955.9,286047001.2,N
1667751975.8,286047001.2,N
1667751995.6,286047000.5,N
1667752015.4,286046999.8,N
1667752035.3,286047001.4,N
1667752055.1,286047004.1,Y
1667752075.9,286047002.9,P
1667752095.7,286047002.9,N
1667752115.5,286047003.3,N
1667752135.4,286047005.4,Y
1667752155.2,286047001.4,P
1667752175.1,286047002.2,P
1667752176.0,286047002.2,P
1667752195.8,286047001.4,Y
1667752215.6,286047002.7,P
1667752235.5,286046999.8,N
1667752255.3,286047000.2,N
1667752275.1,286047000.8,N
1667752295.9,286046999.3,N
1667752315.7,286046999.0,N
1667752335.6,286046999.6,N
1667752355.4,286046999.5,N
1667752375.2,286046999.2,N
1667752395.1,286046999.2,N
1667752396.0,286046999.2,N
1667752415.8,286046999.1,N
1667752435.7,286046994.9,Y
1667752455.5,286046997.8,P
1667752475.3,286046997.4,N
1667752495.2,286046997.9,N
1667752515.0,286046995.9,Y
1667752515.9,286046995.9,P
1667752535.8,286046997.4,N
1667752555.6,286046999.6,N
1667752575.4,286046997.6,N
1667752595.3,286046995.0,Y
1667752615.1,286047001.0,P
1667752635.8,286046999.9,N
1667752655.7,286047002.7,N
1667752675.5,286047002.8,N
1667752695.4,286047002.5,N
1667752715.2,286047003.4,N
1667752735.0,286047003.6,N
1667752735.9,286047003.6,N
1667752755.8,286047003.8,N
1667752775.6,286047003.5,N
1667752795.4,286047004.0,N
1667752815.3,286047001.3,N
1667752835.1,286047001.7,N
1667752855.9,286047003.7,N
1667752875.7,286047001.9,N
1667752895.5,286047002.1,N
1667752915.4,286047000.7,N
1667752935.2,286047001.0,N
1667752955.1,286046999.7,N
1667752956.0,286046999.7,N
1667752975.8,286047004.3,N
1667752995.6,286047002.3,N
1667753015.5,286047000.4,N
1667753035.3,286047002.8,N
1667753055.1,286047003.7,N
1667753075.9,286047003.4,N
1667753095.7,286047005.5,Y
1667753115.6,286047002.7,P
1667753135.4,286047001.8,P
1667753155.2,286047002.0,P
1667753175.1,286047001.4,Y
1667753176.0,286047001.4,P
1667753195.8,286047000.2,N
1667753215.7,286047000.0,N
1667753235.5,286047001.0,N
1667753255.3,286047000.8,N
1667753275.2,286046998.4,N
1667753295.0,286046998.3,N
1667753295.9,286046998.3,N
1667753315.8,286047000.8,N
1667753335.6,286047000.5,N
1667753355.4,286047002.6,N
1667753375.3,286046999.8,N
1667753395.1,286047000.7,N
1667753415.8,286046998.5,N
1667753435.7,286046998.1,N
1667753455.5,286047000.8,N
1667753475.3,286047000.8,N
1667753495.2,286046998.5,N
1667753515.0,286046999.6,N
1667753515.9,286046999.6,N
1667753535.8,286046999.3,N
1667753555.6,286046998.3,N
1667753575.4,286046999.6,N
1667753595.3,286046999.5,N
1667753615.1,286046999.6,N
1667753635.8,286046999.2,N
1667753655.7,286046997.4,N
1667753675.5,286046997.3,N
1667753695.4,286046997.2,N
1667753715.2,286046996.8,N
1667753735.0,286046997.1,N
1667753735.9,286046997.1,N
1667753755.8,286046996.8,N
1667753775.6,286046995.0,Y
1667753795.5,286046997.3,P
1667753815.3,286046997.2,P
1667753835.1,286046995.2,P
1667753855.9,286046995.6,Y
1667753875.7,286046998.6,P
1667753895.5,286046998.7,N
1667753915.4,286046998.5,N
1667753935.2,286046999.1,N
1667753955.1,286046999.1,N
1667753956.0,286046999.1,N
1667753975.8,286046999.2,N
1667753995.6,286046999.6,N
